Regional Weather Roundup
Issued by NWS Upton, NY

Current Version | Previous Version | Text Only | Print | Product List | Glossary Off
Versions: 1 2 3 4 5 6 7 8 9 10 11 12 13 14 15 16 17 18 19 20 21 22 23 24 25 26 27 28 29 30 31 32 33 34 35 36 37 38 39 40 41 42 43 44 45 46 47 48 49 50
000 ASUS41 KOKX 051005 RWROKX REGIONAL WEATHER ROUNDUP NATIONAL WEATHER SERVICE NEW YORK NY 500 AM EST THU MAR 05 2015 NOTE: "FAIR" INDICATES FEW OR NO CLOUDS BELOW 12,000 FEET WITH NO SIGNIFICANT WEATHER AND/OR OBSTRUCTIONS TO VISIBILITY. NYZ071-072-176-178-NJZ106-104-051100- NEW YORK CITY METRO AREA CITY SKY/WX TMP DP RH WIND PRES REMARKS CENTRAL PARK LGT SNOW 32 29 88 VRB6 30.00R FOG WCI 26 LAGUARDIA APRT LGT SNOW 34 30 85 NW12 29.98R FOG WCI 25 KENNEDY INTL LGT SNOW 34 30 85 NW15 30.00R FOG WCI 24 NEWARK/LIBERTY LGT SNOW 34 32 92 NW9 29.99R FOG WCI 27 BRNX BOT. GARD N/A 32 32 100 N3 29.97F TETERBORO LGT SNOW 34 29 82 N7G20 29.98R WCI 28 $$ NYZ177-179-078>081-051100- LONG ISLAND NEW YORK CITY SKY/WX TMP DP RH WIND PRES REMARKS FARMINGDALE LGT SNOW 35 31 85 NW9 29.98R FOG WCI 28 ISLIP LGT SNOW 34 31 88 NW18G28 29.96R FOG WCI 23 SHIRLEY FLURRIES 35 32 88 N13 29.97R WCI 26 WESTHAMPTON LGT RAIN N/A N/A N/A N12 29.97R MONTAUK POINT N/A 34 31 88 N10 29.95R WCI 26 $$ NYZ052-065-067-051100- HUDSON VALLEY CITY SKY/WX TMP DP RH WIND PRES REMARKS WHITE PLAINS LGT SNOW 33 29 85 NW12G22 29.95R VSB 1 WCI 24 NEWBURGH CLOUDY 34 25 69 N13G18 29.98R WCI 25 MONTGOMERY CLOUDY 35 21 56 N6 29.96R WCI 30 POUGHKEEPSIE CLOUDY 33 31 92 CALM 29.98R FOG ALBANY CLOUDY 27 10 49 NW18 30.05R WCI 14 $$ NJZ001-105-106-008-010-013-015-019>022-104-051100- NEW JERSEY CITY SKY/WX TMP DP RH WIND PRES REMARKS NEWARK/LIBERTY LGT SNOW 34 32 92 NW9 29.99R FOG WCI 27 TETERBORO LGT SNOW 34 29 82 N7G20 29.98R WCI 28 CALDWELL LGT SNOW 32 28 85 N5 30.00R FOG WCI 27 MORRISTOWN LGT SNOW 36 32 87 N5 29.99R WCI 32 SOMERVILLE LGT SNOW 34 30 85 N7 29.98R FOG WCI 28 SUSSEX LGT SNOW 32 26 78 NW3 29.98R ANDOVER N/A 31 28 89 N7 29.98R WCI 24 TRENTON LGT SNOW 34 31 88 N7 29.98R FOG WCI 28 MILLVILLE LGT RAIN N/A N/A N/A NW8 29.99R ATLANTIC CITY CLOUDY 38 36 92 NW9 29.96R FOG WCI 31 WRIGHTSTOWN LGT RAIN 36 36 99 N8 29.96R WCI 29 TOMS RIVER CLOUDY 39 36 87 NW7 29.96R WCI 34 BELMAR CLOUDY 36 28 75 N15G23 29.97R WCI 26 $$ PAZ047>061-062-071-051100- EASTERN PENNSYLVANIA CITY SKY/WX TMP DP RH WIND PRES REMARKS PHILADELPHIA LGT RAIN 36 32 85 NW10 30.02R FOG WCI 28 ALLENTOWN LGT SNOW 33 31 92 N3 30.00R FOG SCRANTON LGT SNOW 29 21 72 N12G21 29.99R WCI 19 $$ CTZ002-004>006-009-010-012-RIZ004-006-007-MAZ004-011-015-051100- SOUTHERN NEW ENGLAND IN CT CITY SKY/WX TMP DP RH WIND PRES REMARKS BRADLEY INTL CLOUDY 36 21 54 NW9 29.96R WCI 29 HARTFORD CLOUDY 35 23 61 N8 29.97R WCI 29 DANBURY LGT SNOW 32 28 85 NW6 29.98R VSB 3/4 WCI 26 WTRBRY/OXFORD CLOUDY 30 25 80 NW6 29.96R WCI 24 BRIDGEPORT LGT SNOW 33 32 96 N3 29.98R FOG MERIDEN CLOUDY 33 30 88 NW3 29.97R NEW HAVEN LGT SNOW 33 32 96 N3 29.97R FOG CHESTER LGT SNOW 32 32 100 N6 29.93R WCI 26 GROTON LGT SNOW 32 31 96 N8 29.95R FOG WCI 25 WILLIMANTIC CLOUDY 31 28 89 CALM 29.94R IN RI CITY SKY/WX TMP DP RH WIND PRES REMARKS PROVIDENCE LGT SNOW 32 31 96 CALM 29.94R FOG BLOCK ISLAND CLOUDY 34 30 86 N9 29.91R WCI 26 WESTERLY LGT SNOW 33 31 92 NW6 29.95R FOG WCI 28 IN MA CITY SKY/WX TMP DP RH WIND PRES REMARKS BOSTON CLOUDY 37 21 52 NW7 29.91R WCI 32 WORCESTER CLOUDY 31 18 58 NW13G23 29.88R WCI 21 WESTFIELD CLOUDY 34 21 59 NW14 29.96R WCI 25 PROVINCETOWN CLOUDY 34 30 86 W9 29.91S WCI 26 NANTUCKET MIX PCPN 37 34 89 NW12 29.89F FOG WCI 29 $$ ANZ330-335-338-340-345-350-353-355-051100- COASTAL MARINE OBSERVATIONS STATION/POSITION TIME SKY/WX TEMP WIND PRES VSBY WAVE AIR SEA DIR/SP/G HT/PER (UTC) (F) (DEG/KT/KT) (MB) (MI) (FT/S) NY HARB ENTRANCE 1000 37 38 330/ 17/ 21 1014.3 3/ 9 4S FIRE IS 1000 33 N/A 4/ 9 20S FIRE ISLAND 0900 35 1013.1 4/ 9 23SW MTP 1000 N/A 6/10 HUDSON CANYON NOT AVBL EXECUTION ROCKS NOT AVBL WESTERN LI SOUND NOT AVBL CENTRAL LI SOUND NOT AVBL EASTERN LI SOUND NOT AVBL ROBBINS REEF 0900 33 340/ 13/ 17 1013.9 $$ >>>>>>>>>>>>>>>>>>>>>>>>>>>> KEY <<<<<<<<<<<<<<<<<<<<<<<<<<< > < > SKY/WX - SKY CONDITION/PRESENT WEATHER < > TMP - TEMPERATURE IN FAHRENHEIT < > DP - DEWPOINT IN FAHRENHEIT < > RH - RELATIVE HUMIDITY IN PERCENT < > WIND - DIRECTION AND SPEED IN MPH < > PRES - MEAN SEA LEVEL PRESSURE IN INCHES OF HG < > WCI - WIND CHILL INDEX < > VSB - VISIBILITY IN MILES < > HX - HEAT INDEX < > TC - TEMPERATURE IN CELSIUS < > VRB - VARIABLE WIND DIRECTION < > < >>>>>>>>>>>>>>>>>>>>>>>>>>>> KEY <<<<<<<<<<<<<<<<<<<<<<<<<<<

USA.gov is the U.S. government's official web portal to all federal, state and local government web resources and services.